Regional Weather Roundup
Issued by NWS

Home | Current Version | Previous Version | Text Only | Print | Product List | Glossary On
Versions: 1 2 3 4 5 6 7 8 9 10 11 12 13 14 15 16 17 18 19 20 21 22 23 24 25 26 27 28 29 30 31 32 33 34 35 36 37 38 39 40 41 42 43 44 45 46 47 48 49 50
000
ASUS43 KDMX 180406
RWRIA

WEATHER ROUNDUP FOR IOWA
NATIONAL WEATHER SERVICE DES MOINES IA
1000 PM CST SAT FEB 17 2018

NOTE: "FAIR" INDICATES FEW OR NO CLOUDS BELOW 12,000 FEET WITH NO
SIGNIFICANT WEATHER AND/OR OBSTRUCTIONS TO VISIBILITY.

* - THESE STATIONS ARE NOT NWS STATIONS...THUS NOT UNDER NWS
QUALITY CONTROL.  THEY ALSO DO NOT REPORT WEATHER SUCH
AS PRECIPITATION OR FOG.

IAZ001>003-012>014-020>022-031>034-043>046-180500-
   NORTHWEST IOWA

CITY           SKY/WX    TMP DP  RH WIND       PRES   REMARKS
CARROLL *      CLEAR     27  25  93 CALM      30.14R
CHEROKEE *     CLEAR     18  18 100 S6        30.11R WCI   9
DENISON *      CLEAR     25  25 100 SE5       30.13F WCI  19
LE MARS *      CLEAR     18  16  93 NE3       30.09F
ORANGE CITY *  CLEAR     18  18 100 S5        30.09R WCI  11
SHELDON *      CLEAR     14  14 100 CALM      30.06F FOG
SIOUX CITY     CLOUDY    21  20  96 SE7       30.09F WCI  12
SPENCER        CLEAR     16  13  88 W3        30.08F
STORM LAKE *   CLEAR     19  19 100 SW8       30.10R WCI   9
$$

IAZ055>058-069>071-079>083-090>094-180500-
   SOUTHWEST IOWA

CITY           SKY/WX    TMP DP  RH WIND       PRES   REMARKS
ATLANTIC *     CLEAR     27  27 100 CALM      30.14F
AUDUBON *      CLEAR     23  19  86 CALM      30.13F
CLARINDA *     CLEAR     23  25 100 CALM      30.18S
COUNCIL BLFS * CLEAR     32  27  80 E5        30.12F WCI  27
CRESTON *      CLEAR     30  25  80 CALM      30.16S
HARLAN  *      CLEAR     27  27 100 CALM      30.17S
LAMONI         CLEAR     32  23  69 NW5       30.16S WCI  27
RED OAK *      CLEAR     25  23  93 CALM      30.15F
SHENANDOAH *   CLEAR     27  23  86 CALM      30.16S
$$

IAZ047>049-059>061-072>074-084-180500-
   CENTRAL IOWA

CITY           SKY/WX    TMP DP  RH WIND       PRES   REMARKS
AMES           CLEAR     23  20  88 SW6       30.15R WCI  16
ANKENY *       CLEAR     25  23  93 CALM      30.18R
BOONE *        CLEAR     28  25  86 W8        30.13R WCI  20
CHARITON *     CLEAR     30  25  80 NW3       30.17S
DES MOINES     CLEAR     31  25  78 SW5       30.16S WCI  26
GRINNELL*      CLEAR     28  25  90 W5        30.16S WCI  22
KNOXVILLE *    CLEAR     30  25  80 SW5       30.16R WCI  25
MARSHALLTOWN   CLEAR     21  20  96 W9        30.13R WCI  11
NEWTON *       CLEAR     28  27  93 CALM      30.16S
PELLA *        CLEAR     31  25  80 CALM      30.18S
PERRY *        FAIR      27  26  95 SW6       30.16R WCI  21
$$

IAZ004>006-015-016-023>025-035-036-180500-
   NORTH CENTRAL IOWA

CITY           SKY/WX    TMP DP  RH WIND       PRES   REMARKS
ALGONA *       CLEAR     21 N/A N/A W12       30.09S WCI   9
CLARION *      CLEAR     19  19 100 W6        30.11S WCI  11
ESTHERVILLE    CLEAR     18  16  92 W10       30.09R WCI   6
FORT DODGE *   CLEAR     20  18  92 S3        30.12S
MASON CITY     CLEAR     24  20  84 W14       30.10F WCI  12
FOREST CITY *  FAIR      21  19  93 S3        30.09S
WEBSTER CITY * CLEAR     16  14  93 SW8       30.10S WCI   5
IOWA FALLS *   FAIR      16  14  92 W8        30.12F WCI   5
$$

IAZ007>011-017>019-026>030-037>042-050>054-066-180500-
   NORTHEAST IOWA

CITY           SKY/WX    TMP DP  RH WIND       PRES   REMARKS
CEDAR RAPIDS   FAIR      22  20  92 W10       30.13R FOG     WCI  11
CHARLES CITY * FAIR      23  23 100 W10       30.09F WCI  12
CLINTON *      FAIR      18  17  96 W7        30.15S WCI   9
DECORAH *      FAIR      25  23  93 W8        30.07S WCI  16
DUBUQUE        FAIR      19  16  88 W5        30.10S WCI  12
MONTICELLO *   FOG       14  12  92 W3        30.12S VSB 1
OELWEIN *      FAIR      18  18 100 W10       30.11S WCI   6
WATERLOO       FAIR      22  21  96 W9        30.11F WCI  12
$$

IAZ064-065-067-068-078-180500-
   EAST CENTRAL IOWA

CITY           SKY/WX    TMP DP  RH WIND       PRES   REMARKS
DAVENPORT      FAIR      22  19  89 W8        30.16S WCI  12
IOWA CITY      FAIR      20  16  84 W5        30.18R FOG     WCI  13
MT. PLEASANT * CLEAR     28  25  86 SW5       30.18R WCI  23
MUSCATINE *    FAIR      28  25  86 CALM      30.18R
QUAD CITIES    FAIR      18  16  92 SW5       30.16R FOG     WCI  11
$$

IAZ062-063-075>077-085>089-095>099-180500-
   SOUTHEAST IOWA

CITY           SKY/WX    TMP DP  RH WIND       PRES   REMARKS
BURLINGTON     CLEAR     26  23  88 SW5       30.17R WCI  20
FAIRFIELD *    CLEAR     28  27  93 W6        30.17R WCI  22
FORT MADISON * CLEAR     28  27  93 SW6       30.19R WCI  22
KEOKUK *       CLEAR     27  25  93 SW3       30.19R
OSKALOOSA *    FAIR      25  23  92 W6        30.18R WCI  18
OTTUMWA        CLEAR     28  23  81 W6        30.17R WCI  22
WASHINGTON *   CLEAR     25  25 100 W7        30.18R WCI  17
$$

ABBREVIATIONS USED IN REMARKS
   TC - TEMPERATURES IN CELSIUS
  WCI - WIND CHILL INDEX
   HX - HEAT INDEX
  VSB - VISIBILITY
$$





USA.gov is the U.S. government's official web portal to all federal, state and local government web resources and services.